| time (UTC) | temp F | wind direction | speed MPH | gust MPH | rain 1hr in | rain 24hr in | rain mn in | humidity % | barometer mb |
| 20260507134007 | 77 | 290 | 1.0 | 3.0 | 0.00 | 0.00 | 0.00 | 79 | 1015.1 |
| 20260507133506 | 77 | 222 | 0.0 | 3.0 | 0.00 | 0.00 | 0.00 | 80 | 1015.0 |
| 20260507133006 | 76 | 183 | 0.0 | 3.0 | 0.00 | 0.00 | 0.00 | 81 | 1014.9 |
| 20260507132505 | 76 | 209 | 0.0 | 2.0 | 0.00 | 0.00 | 0.00 | 81 | 1014.9 |
| 20260507132006 | 75 | 209 | 0.0 | 2.0 | 0.00 | 0.00 | 0.00 | 82 | 1015.0 |
| 20260507131607 | 75 | 249 | 0.0 | 2.0 | 0.00 | 0.00 | 0.00 | 82 | 1015.0 |
| 20260507131103 | 74 | 205 | 0.0 | 6.0 | 0.00 | 0.00 | 0.00 | 83 | 1015.0 |
| 20260507130600 | 74 | 205 | 0.0 | 6.0 | 0.00 | 0.00 | 0.00 | 83 | 1015.0 |
| 20260507130100 | 73 | 360 | 0.0 | 6.0 | 0.00 | 0.00 | 0.00 | 84 | 1015.0 |
| 20260507125600 | 73 | 360 | 1.0 | 4.0 | 0.00 | 0.00 | 0.00 | 84 | 1015.0 |
| 20260507125059 | 72 | 360 | 1.0 | 4.0 | 0.00 | 0.00 | 0.00 | 85 | 1014.9 |
| 20260507124605 | 72 | 360 | 0.0 | 3.0 | 0.00 | 0.00 | 0.00 | 86 | 1014.8 |
| 20260507124058 | 72 | 360 | 0.0 | 6.0 | 0.00 | 0.00 | 0.00 | 86 | 1014.7 |
| 20260507123558 | 71 | 360 | 2.0 | 6.0 | 0.00 | 0.00 | 0.00 | 87 | 1014.7 |
| 20260507123059 | 71 | 360 | 2.0 | 6.0 | 0.00 | 0.00 | 0.00 | 88 | 1014.5 |
| 20260507122558 | 70 | 360 | 2.0 | 5.0 | 0.00 | 0.00 | 0.00 | 89 | 1014.6 |
| 20260507122058 | 70 | 360 | 0.0 | 5.0 | 0.00 | 0.00 | 0.00 | 89 | 1014.6 |
| 20260507121558 | 69 | 360 | 0.0 | 5.0 | 0.00 | 0.00 | 0.00 | 90 | 1014.6 |
| 20260507121058 | 69 | 360 | 1.0 | 5.0 | 0.00 | 0.00 | 0.00 | 90 | 1014.6 |
| 20260507120557 | 69 | 197 | 0.0 | 4.0 | 0.00 | 0.00 | 0.00 | 90 | 1014.7 |
| 20260507120057 | 68 | 360 | 0.0 | 0.0 | 0.00 | 0.00 | 0.00 | 90 | 1014.7 |
| 20260507115557 | 68 | 360 | 0.0 | 0.0 | 0.00 | 0.00 | 0.00 | 91 | 1014.7 |
| 20260507115059 | 68 | 360 | 0.0 | 0.0 | 0.00 | 0.00 | 0.00 | 91 | 1014.9 |
| 20260507114609 | 68 | 186 | 0.0 | 0.0 | 0.00 | 0.00 | 0.00 | 90 | 1014.8 |
| 20260507114056 | 68 | 186 | 0.0 | 0.0 | 0.00 | 0.00 | 0.00 | 91 | 1014.8 |
| 20260507113559 | 68 | 186 | 0.0 | 0.0 | 0.00 | 0.00 | 0.00 | 91 | 1014.7 |
| 20260507113126 | 67 | 186 | 0.0 | 0.0 | 0.00 | 0.00 | 0.00 | 91 | 1014.8 |
| 20260507112555 | 67 | 186 | 0.0 | 1.0 | 0.00 | 0.00 | 0.00 | 91 | 1014.8 |
| 20260507112055 | 67 | 186 | 0.0 | 1.0 | 0.00 | 0.00 | 0.00 | 91 | 1014.8 |
| 20260507111558 | 67 | 186 | 0.0 | 0.0 | 0.00 | 0.00 | 0.00 | 90 | 1014.6 |
| 20260507111054 | 67 | 186 | 0.0 | 0.0 | 0.00 | 0.00 | 0.00 | 90 | 1014.6 |
| 20260507110555 | 67 | 186 | 0.0 | 0.0 | 0.00 | 0.00 | 0.00 | 90 | 1014.7 |
| 20260507110055 | 67 | 186 | 0.0 | 0.0 | 0.00 | 0.00 | 0.00 | 90 | 1014.7 |
| 20260507105554 | 67 | 186 | 0.0 | 0.0 | 0.00 | 0.00 | 0.00 | 89 | 1014.6 |
| 20260507105054 | 67 | 186 | 0.0 | 0.0 | 0.00 | 0.00 | 0.00 | 89 | 1014.6 |
| 20260507104555 | 67 | 186 | 0.0 | 0.0 | 0.00 | 0.00 | 0.00 | 89 | 1014.6 |
| 20260507104053 | 67 | 186 | 0.0 | 0.0 | 0.00 | 0.00 | 0.00 | 89 | 1014.7 |
| 20260507103553 | 68 | 186 | 0.0 | 0.0 | 0.00 | 0.00 | 0.00 | 89 | 1014.7 |
| 20260507103055 | 68 | 186 | 0.0 | 0.0 | 0.00 | 0.00 | 0.00 | 89 | 1014.6 |
| 20260507102551 | 68 | 186 | 0.0 | 0.0 | 0.00 | 0.00 | 0.00 | 88 | 1014.6 |
| 20260507102051 | 68 | 186 | 0.0 | 0.0 | 0.00 | 0.00 | 0.00 | 88 | 1014.6 |
| 20260507101551 | 68 | 186 | 0.0 | 0.0 | 0.00 | 0.00 | 0.00 | 88 | 1014.4 |
| 20260507101049 | 68 | 186 | 0.0 | 0.0 | 0.00 | 0.00 | 0.00 | 88 | 1014.5 |
| 20260507100548 | 68 | 186 | 0.0 | 0.0 | 0.00 | 0.00 | 0.00 | 88 | 1014.6 |
| 20260507100050 | 69 | 186 | 0.0 | 0.0 | 0.00 | 0.00 | 0.00 | 88 | 1014.4 |
| 20260507095548 | 69 | 186 | 0.0 | 0.0 | 0.00 | 0.00 | 0.00 | 87 | 1014.5 |
| 20260507095049 | 69 | 186 | 0.0 | 0.0 | 0.00 | 0.00 | 0.00 | 87 | 1014.3 |
| 20260507094547 | 69 | 186 | 0.0 | 0.0 | 0.00 | 0.00 | 0.00 | 87 | 1014.3 |
| 20260507094049 | 69 | 186 | 0.0 | 1.0 | 0.00 | 0.00 | 0.00 | 87 | 1014.3 |
| 20260507093545 | 69 | 186 | 0.0 | 1.0 | 0.00 | 0.00 | 0.00 | 87 | 1014.3 |
| 20260507093045 | 69 | 186 | 0.0 | 0.0 | 0.00 | 0.00 | 0.00 | 87 | 1014.2 |
| 20260507092545 | 70 | 186 | 0.0 | 0.0 | 0.00 | 0.00 | 0.00 | 87 | 1014.2 |
| 20260507092042 | 70 | 186 | 0.0 | 1.0 | 0.00 | 0.00 | 0.00 | 87 | 1014.0 |
| 20260507091544 | 70 | 186 | 0.0 | 1.0 | 0.00 | 0.00 | 0.00 | 87 | 1014.0 |
| 20260507091042 | 70 | 186 | 0.0 | 3.0 | 0.00 | 0.00 | 0.00 | 87 | 1014.0 |
| 20260507090542 | 70 | 186 | 0.0 | 3.0 | 0.00 | 0.00 | 0.00 | 86 | 1013.8 |
| 20260507090042 | 70 | 198 | 0.0 | 0.0 | 0.00 | 0.00 | 0.00 | 86 | 1013.7 |
| 20260507085541 | 70 | 198 | 0.0 | 1.0 | 0.00 | 0.00 | 0.00 | 86 | 1013.6 |
| 20260507085043 | 70 | 198 | 0.0 | 3.0 | 0.00 | 0.00 | 0.00 | 86 | 1013.4 |
| 20260507084546 | 70 | 221 | 0.0 | 1.0 | 0.00 | 0.00 | 0.00 | 86 | 1013.3 |
| 20260507084040 | 70 | 212 | 0.0 | 5.0 | 0.00 | 0.00 | 0.00 | 86 | 1013.2 |
| 20260507083542 | 70 | 217 | 1.0 | 5.0 | 0.00 | 0.00 | 0.00 | 86 | 1013.3 |
| 20260507083040 | 70 | 191 | 0.0 | 1.0 | 0.00 | 0.00 | 0.00 | 86 | 1013.3 |
| 20260507082539 | 70 | 196 | 0.0 | 3.0 | 0.00 | 0.00 | 0.00 | 86 | 1013.3 |
| 20260507082038 | 70 | 196 | 1.0 | 3.0 | 0.00 | 0.00 | 0.00 | 86 | 1013.2 |
| 20260507081541 | 70 | 155 | 0.0 | 3.0 | 0.00 | 0.00 | 0.00 | 86 | 1013.2 |
| 20260507081038 | 70 | 173 | 0.0 | 2.0 | 0.00 | 0.00 | 0.00 | 86 | 1013.3 |
| 20260507080537 | 70 | 158 | 0.0 | 2.0 | 0.00 | 0.00 | 0.00 | 86 | 1013.4 |
| 20260507080042 | 70 | 208 | 0.0 | 0.0 | 0.00 | 0.00 | 0.00 | 86 | 1013.5 |
| 20260507075536 | 70 | 208 | 0.0 | 0.0 | 0.00 | 0.00 | 0.00 | 86 | 1013.6 |
| 20260507075039 | 70 | 206 | 0.0 | 0.0 | 0.00 | 0.00 | 0.00 | 85 | 1013.6 |
| 20260507074537 | 70 | 188 | 0.0 | 0.0 | 0.00 | 0.00 | 0.00 | 85 | 1013.6 |
| 20260507074039 | 70 | 188 | 0.0 | 0.0 | 0.00 | 0.00 | 0.00 | 85 | 1013.5 |
| 20260507073536 | 70 | 188 | 0.0 | 2.0 | 0.00 | 0.00 | 0.00 | 85 | 1013.6 |
| 20260507073034 | 70 | 188 | 0.0 | 2.0 | 0.00 | 0.00 | 0.00 | 85 | 1013.7 |
| 20260507072536 | 70 | 173 | 0.0 | 2.0 | 0.00 | 0.00 | 0.00 | 85 | 1013.9 |
| 20260507072036 | 70 | 159 | 0.0 | 2.0 | 0.00 | 0.00 | 0.00 | 86 | 1013.9 |
| 20260507071532 | 70 | 192 | 0.0 | 2.0 | 0.00 | 0.00 | 0.00 | 86 | 1013.9 |
| 20260507071035 | 70 | 196 | 0.0 | 0.0 | 0.00 | 0.00 | 0.00 | 86 | 1014.0 |
| 20260507070531 | 70 | 196 | 0.0 | 0.0 | 0.00 | 0.00 | 0.00 | 85 | 1014.1 |
| 20260507070030 | 70 | 196 | 0.0 | 0.0 | 0.00 | 0.00 | 0.00 | 85 | 1014.1 |
| 20260507065532 | 70 | 196 | 0.0 | 0.0 | 0.00 | 0.00 | 0.00 | 85 | 1014.2 |
| 20260507065031 | 70 | 195 | 0.0 | 0.0 | 0.00 | 0.00 | 0.00 | 85 | 1014.1 |
| 20260507064529 | 70 | 196 | 0.0 | 0.0 | 0.00 | 0.00 | 0.00 | 86 | 1014.1 |
| 20260507064028 | 70 | 196 | 0.0 | 0.0 | 0.00 | 0.00 | 0.00 | 85 | 1014.2 |
| 20260507063527 | 70 | 196 | 0.0 | 0.0 | 0.00 | 0.00 | 0.00 | 85 | 1014.3 |
| 20260507063028 | 70 | 196 | 0.0 | 0.0 | 0.00 | 0.00 | 0.00 | 85 | 1014.4 |
| 20260507062528 | 70 | 196 | 0.0 | 0.0 | 0.00 | 0.00 | 0.00 | 85 | 1014.4 |
| 20260507062026 | 70 | 196 | 0.0 | 0.0 | 0.00 | 0.00 | 0.00 | 85 | 1014.4 |
| 20260507061526 | 70 | 196 | 0.0 | 0.0 | 0.00 | 0.00 | 0.00 | 85 | 1014.6 |
| 20260507061024 | 71 | 196 | 0.0 | 0.0 | 0.00 | 0.00 | 0.00 | 85 | 1014.7 |
| 20260507060524 | 71 | 196 | 0.0 | 0.0 | 0.00 | 0.00 | 0.00 | 85 | 1014.8 |
| 20260507060024 | 71 | 196 | 0.0 | 0.0 | 0.00 | 0.00 | 0.00 | 85 | 1014.8 |
| 20260507055523 | 71 | 196 | 0.0 | 0.0 | 0.00 | 0.00 | 0.00 | 84 | 1014.8 |
| 20260507055022 | 71 | 196 | 0.0 | 0.0 | 0.00 | 0.00 | 0.00 | 84 | 1014.9 |
| 20260507054522 | 71 | 196 | 0.0 | 0.0 | 0.00 | 0.00 | 0.00 | 84 | 1014.8 |
| 20260507054021 | 71 | 196 | 0.0 | 0.0 | 0.00 | 0.00 | 0.00 | 84 | 1014.9 |
| 20260507053521 | 71 | 196 | 0.0 | 0.0 | 0.00 | 0.00 | 0.00 | 84 | 1015.0 |
| 20260507053021 | 72 | 195 | 0.0 | 0.0 | 0.00 | 0.00 | 0.00 | 84 | 1015.1 |
| 20260507052519 | 72 | 195 | 0.0 | 0.0 | 0.00 | 0.00 | 0.00 | 84 | 1015.1 |
| 20260507052019 | 72 | 195 | 0.0 | 0.0 | 0.00 | 0.00 | 0.00 | 84 | 1015.2 |
| 20260507051519 | 72 | 195 | 0.0 | 0.0 | 0.00 | 0.00 | 0.00 | 84 | 1015.2 |
| 20260507051022 | 72 | 195 | 0.0 | 0.0 | 0.00 | 0.00 | 0.00 | 84 | 1015.2 |
| 20260507050517 | 72 | 196 | 0.0 | 0.0 | 0.00 | 0.00 | 0.00 | 83 | 1015.1 |
| 20260507050025 | 72 | 196 | 0.0 | 0.0 | 0.00 | 0.00 | 0.00 | 83 | 1015.2 |
| 20260507045519 | 72 | 196 | 0.0 | 0.0 | 0.00 | 0.00 | 0.00 | 83 | 1015.0 |
| 20260507045016 | 72 | 196 | 0.0 | 0.0 | 0.00 | 0.00 | 0.00 | 83 | 1015.0 |
| 20260507044515 | 73 | 360 | 0.0 | 0.0 | 0.00 | 0.00 | 0.00 | 83 | 1015.0 |
| 20260507044014 | 73 | 360 | 0.0 | 0.0 | 0.00 | 0.00 | 0.00 | 83 | 1015.0 |
| 20260507043514 | 73 | 360 | 0.0 | 0.0 | 0.00 | 0.00 | 0.00 | 82 | 1015.1 |
| 20260507043022 | 73 | 360 | 0.0 | 0.0 | 0.00 | 0.00 | 0.00 | 81 | 1015.0 |
| 20260507042516 | 73 | 360 | 0.0 | 0.0 | 0.00 | 0.00 | 0.00 | 81 | 1015.2 |
| 20260507042010 | 74 | 360 | 0.0 | 0.0 | 0.00 | 0.00 | 0.00 | 81 | 1015.5 |
| 20260507041510 | 74 | 195 | 0.0 | 0.0 | 0.00 | 0.00 | 0.00 | 80 | 1015.8 |
| 20260507041009 | 74 | 195 | 0.0 | 0.0 | 0.00 | 0.00 | 0.00 | 80 | 1015.8 |
| 20260507040508 | 74 | 195 | 0.0 | 0.0 | 0.00 | 0.00 | 0.00 | 80 | 1015.7 |
| 20260507040007 | 74 | 195 | 0.0 | 0.0 | 0.00 | 0.00 | 0.00 | 79 | 1015.6 |
| 20260507035510 | 75 | 195 | 0.0 | 0.0 | 0.00 | 0.00 | 0.00 | 79 | 1015.6 |
| 20260507035008 | 75 | 360 | 0.0 | 0.0 | 0.00 | 0.00 | 0.00 | 79 | 1015.6 |
| 20260507034508 | 75 | 360 | 0.0 | 0.0 | 0.00 | 0.00 | 0.00 | 79 | 1015.5 |
| 20260507034005 | 75 | 360 | 0.0 | 0.0 | 0.00 | 0.00 | 0.00 | 79 | 1015.5 |
| 20260507033605 | 75 | 360 | 0.0 | 0.0 | 0.00 | 0.00 | 0.00 | 78 | 1015.4 |
| 20260507033005 | 75 | 360 | 0.0 | 3.0 | 0.00 | 0.00 | 0.00 | 78 | 1015.4 |
| 20260507032504 | 75 | 195 | 0.0 | 3.0 | 0.00 | 0.00 | 0.00 | 78 | 1015.4 |
| 20260507032005 | 75 | 170 | 0.0 | 0.0 | 0.00 | 0.00 | 0.00 | 79 | 1015.4 |
| 20260507031505 | 76 | 171 | 0.0 | 0.0 | 0.00 | 0.00 | 0.00 | 79 | 1015.5 |
| 20260507031005 | 76 | 173 | 0.0 | 0.0 | 0.00 | 0.00 | 0.00 | 79 | 1015.6 |
| 20260507030505 | 76 | 173 | 0.0 | 0.0 | 0.00 | 0.00 | 0.00 | 79 | 1015.5 |
| 20260507030007 | 76 | 173 | 0.0 | 2.0 | 0.00 | 0.00 | 0.00 | 79 | 1015.5 |
| 20260507025505 | 76 | 173 | 0.0 | 2.0 | 0.00 | 0.00 | 0.00 | 79 | 1015.4 |
| 20260507025004 | 76 | 176 | 0.0 | 2.0 | 0.00 | 0.00 | 0.00 | 79 | 1015.4 |
| 20260507024508 | 76 | 176 | 0.0 | 2.0 | 0.00 | 0.00 | 0.00 | 79 | 1015.4 |
| 20260507024003 | 76 | 187 | 0.0 | 2.0 | 0.00 | 0.00 | 0.00 | 79 | 1015.2 |
| 20260507023503 | 77 | 210 | 0.0 | 1.0 | 0.00 | 0.00 | 0.00 | 79 | 1015.3 |
| 20260507023007 | 77 | 211 | 0.0 | 1.0 | 0.00 | 0.00 | 0.00 | 79 | 1015.3 |
| 20260507022503 | 77 | 211 | 0.0 | 0.0 | 0.00 | 0.00 | 0.00 | 79 | 1015.3 |
| 20260507022004 | 78 | 211 | 0.0 | 0.0 | 0.00 | 0.00 | 0.00 | 77 | 1015.3 |
| 20260507021503 | 78 | 211 | 0.0 | 0.0 | 0.00 | 0.00 | 0.00 | 78 | 1015.5 |
| 20260507021005 | 78 | 211 | 0.0 | 1.0 | 0.00 | 0.00 | 0.00 | 78 | 1015.3 |
| 20260507020503 | 78 | 211 | 0.0 | 0.0 | 0.00 | 0.00 | 0.00 | 76 | 1015.2 |
| 20260507020003 | 78 | 211 | 0.0 | 1.0 | 0.00 | 0.00 | 0.00 | 76 | 1015.3 |
| 20260507015502 | 78 | 211 | 0.0 | 1.0 | 0.00 | 0.00 | 0.00 | 76 | 1015.2 |
| 20260507015005 | 79 | 211 | 0.0 | 1.0 | 0.00 | 0.00 | 0.00 | 76 | 1015.1 |
| 20260507014603 | 79 | 211 | 0.0 | 1.0 | 0.00 | 0.00 | 0.00 | 75 | 1015.0 |
| 20260507014000 | 79 | 212 | 0.0 | 2.0 | 0.00 | 0.00 | 0.00 | 75 | 1015.2 |
| 20260507013602 | 79 | 212 | 0.0 | 2.0 | 0.00 | 0.00 | 0.00 | 75 | 1015.1 |
| 20260507013100 | 79 | 157 | 0.0 | 3.0 | 0.00 | 0.00 | 0.00 | 75 | 1015.2 |
| 20260507012600 | 79 | 175 | 0.0 | 3.0 | 0.00 | 0.00 | 0.00 | 74 | 1015.3 |
| 20260507012100 | 80 | 119 | 0.0 | 2.0 | 0.00 | 0.00 | 0.00 | 74 | 1015.3 |
| 20260507011601 | 80 | 119 | 0.0 | 2.0 | 0.00 | 0.00 | 0.00 | 74 | 1015.3 |
| 20260507011058 | 80 | 124 | 0.0 | 2.0 | 0.00 | 0.00 | 0.00 | 74 | 1015.2 |
| 20260507010558 | 80 | 124 | 0.0 | 1.0 | 0.00 | 0.00 | 0.00 | 74 | 1014.9 |
| 20260507010057 | 80 | 124 | 0.0 | 0.0 | 0.00 | 0.00 | 0.00 | 74 | 1014.9 |
| 20260507005559 | 80 | 124 | 0.0 | 0.0 | 0.00 | 0.00 | 0.00 | 74 | 1015.0 |
| 20260507005101 | 80 | 123 | 0.0 | 1.0 | 0.00 | 0.00 | 0.00 | 73 | 1015.0 |
| 20260507004556 | 81 | 123 | 0.0 | 2.0 | 0.00 | 0.00 | 0.00 | 73 | 1014.7 |
| 20260507004056 | 81 | 123 | 0.0 | 2.0 | 0.00 | 0.00 | 0.00 | 73 | 1014.8 |
| 20260507003556 | 81 | 123 | 0.0 | 2.0 | 0.00 | 0.00 | 0.00 | 73 | 1014.7 |
| 20260507003114 | 81 | 121 | 0.0 | 2.0 | 0.00 | 0.00 | 0.00 | 72 | 1014.6 |
| 20260507002556 | 81 | 123 | 0.0 | 3.0 | 0.00 | 0.00 | 0.00 | 72 | 1014.5 |
| 20260507002056 | 82 | 121 | 0.0 | 3.0 | 0.00 | 0.00 | 0.00 | 72 | 1014.5 |
| 20260507001614 | 82 | 119 | 1.0 | 4.0 | 0.00 | 0.00 | 0.00 | 72 | 1014.3 |
| 20260507001054 | 82 | 126 | 2.0 | 6.0 | 0.00 | 0.00 | 0.00 | 71 | 1014.1 |
| 20260507000559 | 82 | 115 | 2.0 | 6.0 | 0.00 | 0.00 | 0.00 | 71 | 1014.0 |
| 20260507000056 | 83 | 127 | 2.0 | 6.0 | 0.00 | 0.00 | 0.00 | 71 | 1014.0 |
| 20260506235555 | 83 | 123 | 2.0 | 6.0 | 0.00 | 0.00 | 0.00 | 70 | 1014.0 |
| 20260506235054 | 83 | 109 | 2.0 | 5.0 | 0.00 | 0.00 | 0.00 | 70 | 1014.0 |
| 20260506234556 | 84 | 117 | 2.0 | 8.0 | 0.00 | 0.00 | 0.00 | 69 | 1014.1 |
| 20260506234058 | 84 | 116 | 2.0 | 9.0 | 0.00 | 0.00 | 0.00 | 69 | 1013.9 |
| 20260506233554 | 85 | 91 | 2.0 | 9.0 | 0.00 | 0.00 | 0.00 | 68 | 1013.9 |
| 20260506233055 | 86 | 123 | 5.0 | 9.0 | 0.00 | 0.00 | 0.00 | 67 | 1013.9 |
| 20260506232553 | 86 | 118 | 3.0 | 8.0 | 0.00 | 0.00 | 0.00 | 67 | 1013.8 |
| 20260506232053 | 87 | 131 | 2.0 | 8.0 | 0.00 | 0.00 | 0.00 | 65 | 1013.8 |
| 20260506231559 | 88 | 115 | 4.0 | 7.0 | 0.00 | 0.00 | 0.00 | 64 | 1013.8 |
| 20260506231053 | 89 | 125 | 2.0 | 7.0 | 0.00 | 0.00 | 0.00 | 61 | 1013.7 |
| 20260506230553 | 90 | 134 | 0.0 | 7.0 | 0.00 | 0.00 | 0.00 | 58 | 1013.9 |
| 20260506225555 | 91 | 178 | 1.0 | 4.0 | 0.00 | 0.00 | 0.00 | 49 | 1013.7 |
| 20260506225051 | 91 | 271 | 1.0 | 4.0 | 0.00 | 0.00 | 0.00 | 49 | 1013.8 |
| 20260506224551 | 91 | 173 | 0.0 | 2.0 | 0.00 | 0.00 | 0.00 | 50 | 1013.7 |
| 20260506224050 | 91 | 174 | 0.0 | 2.0 | 0.00 | 0.00 | 0.00 | 49 | 1013.7 |
| 20260506223553 | 91 | 212 | 0.0 | 5.0 | 0.00 | 0.00 | 0.00 | 49 | 1013.7 |
| 20260506223050 | 91 | 213 | 1.0 | 5.0 | 0.00 | 0.00 | 0.00 | 48 | 1013.7 |
| 20260506222550 | 91 | 183 | 0.0 | 3.0 | 0.00 | 0.00 | 0.00 | 49 | 1013.8 |
| 20260506222052 | 91 | 206 | 1.0 | 3.0 | 0.00 | 0.00 | 0.00 | 47 | 1013.8 |
| 20260506221604 | 92 | 203 | 1.0 | 7.0 | 0.00 | 0.00 | 0.00 | 48 | 1013.8 |
| 20260506221049 | 92 | 195 | 1.0 | 4.0 | 0.00 | 0.00 | 0.00 | 48 | 1013.7 |
| 20260506220549 | 92 | 196 | 0.0 | 4.0 | 0.00 | 0.00 | 0.00 | 48 | 1013.7 |
| 20260506220049 | 92 | 196 | 1.0 | 4.0 | 0.00 | 0.00 | 0.00 | 47 | 1013.6 |
| 20260506215548 | 92 | 209 | 1.0 | 7.0 | 0.00 | 0.00 | 0.00 | 48 | 1013.6 |
| 20260506215051 | 92 | 190 | 4.0 | 7.0 | 0.00 | 0.00 | 0.00 | 46 | 1013.6 |
| 20260506214553 | 92 | 191 | 1.0 | 4.0 | 0.00 | 0.00 | 0.00 | 47 | 1013.7 |
| 20260506214048 | 92 | 166 | 1.0 | 8.0 | 0.00 | 0.00 | 0.00 | 47 | 1013.8 |
| 20260506213546 | 92 | 209 | 2.0 | 8.0 | 0.00 | 0.00 | 0.00 | 49 | 1013.8 |
| 20260506213047 | 92 | 184 | 1.0 | 4.0 | 0.00 | 0.00 | 0.00 | 48 | 1013.9 |
| 20260506212546 | 92 | 144 | 0.0 | 4.0 | 0.00 | 0.00 | 0.00 | 49 | 1013.9 |
| 20260506212045 | 92 | 148 | 1.0 | 6.0 | 0.00 | 0.00 | 0.00 | 47 | 1013.9 |
| 20260506211545 | 92 | 205 | 2.0 | 5.0 | 0.00 | 0.00 | 0.00 | 48 | 1014.0 |
| 20260506211047 | 92 | 191 | 1.0 | 5.0 | 0.00 | 0.00 | 0.00 | 48 | 1014.1 |
| 20260506210544 | 92 | 207 | 2.0 | 8.0 | 0.00 | 0.00 | 0.00 | 48 | 1014.0 |
| 20260506210053 | 92 | 211 | 4.0 | 8.0 | 0.00 | 0.00 | 0.00 | 48 | 1014.1 |
| 20260506205549 | 92 | 268 | 2.0 | 5.0 | 0.00 | 0.00 | 0.00 | 49 | 1014.1 |
| 20260506205042 | 92 | 184 | 1.0 | 3.0 | 0.00 | 0.00 | 0.00 | 48 | 1014.1 |
| 20260506204546 | 92 | 125 | 1.0 | 8.0 | 0.00 | 0.00 | 0.00 | 47 | 1014.1 |
| 20260506204041 | 92 | 224 | 2.0 | 8.0 | 0.00 | 0.00 | 0.00 | 47 | 1014.3 |
| 20260506203540 | 92 | 204 | 1.0 | 5.0 | 0.00 | 0.00 | 0.00 | 47 | 1014.3 |
| 20260506203041 | 92 | 290 | 2.0 | 6.0 | 0.00 | 0.00 | 0.00 | 46 | 1014.2 |
| 20260506202538 | 92 | 214 | 1.0 | 4.0 | 0.00 | 0.00 | 0.00 | 48 | 1014.3 |
| 20260506202037 | 92 | 152 | 1.0 | 3.0 | 0.00 | 0.00 | 0.00 | 49 | 1014.4 |
| 20260506201536 | 91 | 273 | 0.0 | 3.0 | 0.00 | 0.00 | 0.00 | 46 | 1014.6 |
| 20260506201035 | 91 | 195 | 0.0 | 5.0 | 0.00 | 0.00 | 0.00 | 48 | 1014.6 |
| 20260506200537 | 91 | 251 | 2.0 | 6.0 | 0.00 | 0.00 | 0.00 | 47 | 1014.7 |
| 20260506200035 | 91 | 163 | 2.0 | 6.0 | 0.00 | 0.00 | 0.00 | 48 | 1014.7 |
| 20260506195533 | 91 | 213 | 3.0 | 6.0 | 0.00 | 0.00 | 0.00 | 47 | 1014.8 |
| 20260506195033 | 91 | 218 | 2.0 | 7.0 | 0.00 | 0.00 | 0.00 | 48 | 1015.0 |
| 20260506194532 | 91 | 196 | 2.0 | 7.0 | 0.00 | 0.00 | 0.00 | 49 | 1015.0 |
| 20260506194031 | 92 | 269 | 2.0 | 6.0 | 0.00 | 0.00 | 0.00 | 47 | 1015.1 |
| 20260506193531 | 92 | 209 | 2.0 | 5.0 | 0.00 | 0.00 | 0.00 | 49 | 1015.2 |
| 20260506193037 | 92 | 200 | 1.0 | 5.0 | 0.00 | 0.00 | 0.00 | 47 | 1015.2 |
| 20260506192532 | 92 | 238 | 1.0 | 4.0 | 0.00 | 0.00 | 0.00 | 48 | 1015.2 |
| 20260506192029 | 91 | 269 | 0.0 | 4.0 | 0.00 | 0.00 | 0.00 | 49 | 1015.2 |
| 20260506191529 | 91 | 314 | 1.0 | 6.0 | 0.00 | 0.00 | 0.00 | 48 | 1015.3 |
| 20260506191028 | 91 | 269 | 2.0 | 7.0 | 0.00 | 0.00 | 0.00 | 49 | 1015.5 |
| 20260506190530 | 91 | 213 | 2.0 | 7.0 | 0.00 | 0.00 | 0.00 | 49 | 1015.4 |
| 20260506190030 | 92 | 234 | 1.0 | 4.0 | 0.00 | 0.00 | 0.00 | 49 | 1015.6 |
| 20260506185525 | 91 | 136 | 1.0 | 8.0 | 0.00 | 0.00 | 0.00 | 49 | 1015.5 |
| 20260506185025 | 91 | 196 | 4.0 | 8.0 | 0.00 | 0.00 | 0.00 | 48 | 1015.5 |
| 20260506184534 | 90 | 179 | 1.0 | 9.0 | 0.00 | 0.00 | 0.00 | 48 | 1015.6 |
| 20260506184024 | 91 | 249 | 3.0 | 9.0 | 0.00 | 0.00 | 0.00 | 49 | 1015.8 |
| 20260506183523 | 91 | 261 | 1.0 | 6.0 | 0.00 | 0.00 | 0.00 | 50 | 1015.7 |
| 20260506183021 | 91 | 196 | 2.0 | 6.0 | 0.00 | 0.00 | 0.00 | 50 | 1015.8 |
| 20260506182520 | 90 | 337 | 0.0 | 6.0 | 0.00 | 0.00 | 0.00 | 50 | 1015.8 |
| 20260506182020 | 90 | 286 | 2.0 | 8.0 | 0.00 | 0.00 | 0.00 | 50 | 1016.1 |
| 20260506181531 | 90 | 267 | 2.0 | 8.0 | 0.00 | 0.00 | 0.00 | 50 | 1016.2 |
| 20260506181021 | 90 | 248 | 2.0 | 6.0 | 0.00 | 0.00 | 0.00 | 51 | 1016.2 |
| 20260506180519 | 89 | 261 | 2.0 | 6.0 | 0.00 | 0.00 | 0.00 | 52 | 1016.3 |
| 20260506180016 | 89 | 240 | 3.0 | 6.0 | 0.00 | 0.00 | 0.00 | 53 | 1016.3 |
| 20260506175516 | 89 | 122 | 0.0 | 4.0 | 0.00 | 0.00 | 0.00 | 53 | 1016.3 |
| 20260506175014 | 89 | 123 | 1.0 | 5.0 | 0.00 | 0.00 | 0.00 | 53 | 1016.4 |
| 20260506174514 | 89 | 138 | 1.0 | 5.0 | 0.00 | 0.00 | 0.00 | 54 | 1016.5 |
| 20260506174015 | 88 | 284 | 1.0 | 7.0 | 0.00 | 0.00 | 0.00 | 52 | 1016.4 |
| 20260506173515 | 88 | 182 | 3.0 | 7.0 | 0.00 | 0.00 | 0.00 | 55 | 1016.6 |
| 20260506173012 | 88 | 168 | 0.0 | 4.0 | 0.00 | 0.00 | 0.00 | 57 | 1016.6 |
| 20260506172512 | 88 | 212 | 1.0 | 4.0 | 0.00 | 0.00 | 0.00 | 57 | 1016.7 |
| 20260506172011 | 87 | 274 | 1.0 | 5.0 | 0.00 | 0.00 | 0.00 | 57 | 1016.7 |
| 20260506171508 | 87 | 196 | 1.0 | 5.0 | 0.00 | 0.00 | 0.00 | 56 | 1016.7 |
| 20260506171011 | 86 | 212 | 1.0 | 6.0 | 0.00 | 0.00 | 0.00 | 58 | 1016.7 |
| 20260506170506 | 86 | 227 | 2.0 | 8.0 | 0.00 | 0.00 | 0.00 | 57 | 1016.8 |
| 20260506170005 | 86 | 182 | 2.0 | 8.0 | 0.00 | 0.00 | 0.00 | 59 | 1016.9 |
| 20260506165505 | 86 | 284 | 2.0 | 7.0 | 0.00 | 0.00 | 0.00 | 59 | 1017.0 |
| 20260506165004 | 86 | 183 | 2.0 | 6.0 | 0.00 | 0.00 | 0.00 | 59 | 1017.1 |
| 20260506164515 | 85 | 253 | 1.0 | 8.0 | 0.00 | 0.00 | 0.00 | 60 | 1017.0 |
| 20260506164003 | 86 | 198 | 2.0 | 7.0 | 0.00 | 0.00 | 0.00 | 60 | 1017.1 |
| 20260506163501 | 85 | 223 | 1.0 | 7.0 | 0.00 | 0.00 | 0.00 | 61 | 1017.1 |
| 20260506163111 | 85 | 157 | 2.0 | 8.0 | 0.00 | 0.00 | 0.00 | 61 | 1017.2 |
| 20260506162600 | 85 | 154 | 2.0 | 8.0 | 0.00 | 0.00 | 0.00 | 62 | 1017.3 |
| 20260506162059 | 84 | 146 | 2.0 | 9.0 | 0.00 | 0.00 | 0.00 | 62 | 1017.3 |
| 20260506161559 | 84 | 279 | 3.0 | 9.0 | 0.00 | 0.00 | 0.00 | 62 | 1017.3 |
| 20260506161100 | 84 | 171 | 2.0 | 7.0 | 0.00 | 0.00 | 0.00 | 63 | 1017.2 |
| 20260506160556 | 84 | 201 | 3.0 | 7.0 | 0.00 | 0.00 | 0.00 | 63 | 1017.3 |
| 20260506160107 | 84 | 151 | 3.0 | 8.0 | 0.00 | 0.00 | 0.00 | 65 | 1017.5 |
| 20260506155553 | 83 | 266 | 3.0 | 10.0 | 0.00 | 0.00 | 0.00 | 64 | 1017.4 |
| 20260506155053 | 83 | 216 | 3.0 | 10.0 | 0.00 | 0.00 | 0.00 | 65 | 1017.3 |
| 20260506154555 | 83 | 273 | 4.0 | 9.0 | 0.00 | 0.00 | 0.00 | 66 | 1017.5 |
| 20260506154051 | 83 | 182 | 2.0 | 7.0 | 0.00 | 0.00 | 0.00 | 66 | 1017.3 |
| 20260506153556 | 82 | 278 | 3.0 | 7.0 | 0.00 | 0.00 | 0.00 | 66 | 1017.5 |
| 20260506153049 | 82 | 223 | 2.0 | 10.0 | 0.00 | 0.00 | 0.00 | 67 | 1017.5 |
| 20260506152548 | 82 | 195 | 3.0 | 10.0 | 0.00 | 0.00 | 0.00 | 68 | 1017.4 |
| 20260506152048 | 81 | 231 | 2.0 | 6.0 | 0.00 | 0.00 | 0.00 | 69 | 1017.4 |
| 20260506151545 | 81 | 251 | 2.0 | 8.0 | 0.00 | 0.00 | 0.00 | 70 | 1017.3 |
| 20260506151045 | 81 | 264 | 2.0 | 8.0 | 0.00 | 0.00 | 0.00 | 70 | 1017.3 |
| 20260506150544 | 80 | 265 | 2.0 | 10.0 | 0.00 | 0.00 | 0.00 | 70 | 1017.3 |
| 20260506150053 | 80 | 226 | 1.0 | 8.0 | 0.00 | 0.00 | 0.00 | 71 | 1017.4 |
| 20260506145542 | 80 | 197 | 0.0 | 5.0 | 0.00 | 0.00 | 0.00 | 73 | 1017.2 |
| 20260506145040 | 79 | 171 | 1.0 | 6.0 | 0.00 | 0.00 | 0.00 | 73 | 1017.2 |
| 20260506144540 | 79 | 125 | 2.0 | 4.0 | 0.00 | 0.00 | 0.00 | 74 | 1017.1 |
| 20260506144038 | 79 | 157 | 1.0 | 6.0 | 0.00 | 0.00 | 0.00 | 74 | 1017.1 |
| 20260506143538 | 78 | 175 | 1.0 | 7.0 | 0.00 | 0.00 | 0.00 | 74 | 1017.1 |
| 20260506143039 | 78 | 184 | 2.0 | 6.0 | 0.00 | 0.00 | 0.00 | 75 | 1017.1 |
| 20260506142537 | 78 | 120 | 1.0 | 7.0 | 0.00 | 0.00 | 0.00 | 75 | 1017.2 |
| 20260506142035 | 78 | 129 | 2.0 | 7.0 | 0.00 | 0.00 | 0.00 | 75 | 1017.1 |
| 20260506141541 | 77 | 198 | 2.0 | 4.0 | 0.00 | 0.00 | 0.00 | 76 | 1017.2 |
| 20260506141032 | 77 | 187 | 0.0 | 5.0 | 0.00 | 0.00 | 0.00 | 77 | 1017.2 |
| 20260506140533 | 76 | 132 | 1.0 | 9.0 | 0.00 | 0.00 | 0.00 | 77 | 1017.1 |
| 20260506140029 | 76 | 215 | 3.0 | 9.0 | 0.00 | 0.00 | 0.00 | 77 | 1017.1 |
| 20260506135527 | 76 | 200 | 3.0 | 8.0 | 0.00 | 0.00 | 0.00 | 77 | 1017.1 |
| 20260506135025 | 75 | 225 | 1.0 | 8.0 | 0.00 | 0.00 | 0.00 | 78 | 1017.1 |
| 20260506134524 | 75 | 188 | 3.0 | 10.0 | 0.00 | 0.00 | 0.00 | 79 | 1017.2 |